Regional Weather Roundup
Issued by NWS

Home | Current Version | Previous Version | Text Only | Print | Product List | Glossary On
Versions: 1 2 3 4 5 6 7 8 9 10 11 12 13 14 15 16 17 18 19 20 21 22 23 24 25 26 27 28 29 30 31 32 33 34 35 36 37 38 39 40 41 42 43 44 45 46 47 48 49 50
706
ASHW40 PHFO 061012
RWRHI

WEATHER ROUNDUP FOR HAWAII
NATIONAL WEATHER SERVICE HONOLULU HI
1200 AM HST SAT FEB 06 2016

THIS IS AN AUTOMATED REPORT THAT HAS NOT BEEN QUALITY CONTROLLED.

NOTE..."FAIR" INDICATES FEW OR NO CLOUDS BELOW 12,000 FEET WITH NO
SIGNIFICANT WEATHER AND/OR OBSTRUCTIONS TO VISIBILITY.

* - THESE SITES REPORT LIMITED FIELDS

HIZ001>004-061100-
KAUAI-NIIHAU-

CITY           SKY/WX    TMP DP  RH WIND       PRES   REMARKS
LIHUE APT      CLEAR     69  64  84 W5        30.02F
PORT ALLEN*      N/A     66 N/A N/A NE7         N/A
POIPU*           N/A     66 N/A N/A N5          N/A
PRINCEVILLE*     N/A     66 N/A N/A S3          N/A
KOKOLE POINT*  NOT AVBL
MOLOAA DAIRY*    N/A     68  63  83 W1          N/A
WAIMEA HTS*    NOT AVBL
PUU OPAE*      NOT AVBL
PUU LUA*       NOT AVBL
MAKAHA RIDGE*  NOT AVBL
$$

HIZ005>011-061100-
OAHU-

CITY           SKY/WX    TMP DP  RH WIND       PRES   REMARKS
HONOLULU       MOCLDY    76  68  76 CALM      30.01S
KALAELOA       CLOUDY    74  66  76 CALM      30.02F
KANEOHE MCB    MOCLDY    73  69  87 CALM      29.99F
WHEELER FIELD  FAIR      69  66  88 NW3       30.02F
BELLOWS*       NOT AVBL
KAHUKU*        NOT AVBL
WHEELER*       NOT AVBL
WAIANAE HARBOR NOT AVBL
DILLINGHAM*      N/A     70  64  83 MISG        N/A
KAHUKU TRN*      N/A     70  66  88 S2          N/A
KAWAILOA*        N/A     68  64  88 NE5         N/A
KII*             N/A     72  68  88 S3          N/A
MAKUA RANGE*     N/A     75  66  73 E8          N/A
OAHU FOREST NW NOT AVBL
SCHOFIELD BRK*   N/A     66  64  94 N1          N/A
SCHOFIELD S*   NOT AVBL
WAIANAE VLY*   NOT AVBL
KUAOKALA*      NOT AVBL
HONOULIUULI*   NOT AVBL
MOKUOLOE IS*   NOT AVBL
PALEHUA*       NOT AVBL
WAIAWA PHB*    NOT AVBL
$$

HIZ012>013-061100-
MOLOKAI-

CITY           SKY/WX    TMP DP  RH WIND       PRES   REMARKS
MOLOKAI AIRPT  CLOUDY    71  67  87 N5        30.02F
KALAUPAPA      NOT AVBL
MAKAPULAPAI*   NOT AVBL
MOLOKAI 1*     NOT AVBL
PUU ALII*      NOT AVBL
$$

HIZ016-061100-
KAHOOLAWE-

CITY           SKY/WX    TMP DP  RH WIND       PRES   REMARKS
KAHOOLAWE*     NOT AVBL
HAKIOAWA*      NOT AVBL
HONOKANAIA*      N/A     74  68  82 NW3       29.95S
KANELOA*         N/A     72  68  88 NE3       30.08S
KEALIALALO*    NOT AVBL
LUA MAKIKA*    NOT AVBL
$$

HIZ014>015-061100-
LANAI-

CITY           SKY/WX    TMP DP  RH WIND       PRES   REMARKS
LANAI CITY     FAIR      68  63  84 N7        30.07S
LANAI 1*       NOT AVBL
$$

HIZ017>028-061100-
MAUI-

CITY           SKY/WX    TMP DP  RH WIND       PRES   REMARKS
KAHULUI        PTCLDY    67  63  87 MISG      30.01R
KAPALUA-W MAUI NOT AVBL
HANA AIRPORT   CLEAR     68  32  26 S3        30.04S
HANA*            N/A     72 N/A N/A SW3         N/A
HALEAKALA SUMM   N/A     43  -8  11 S7          N/A
MAALAEA BAY*   NOT AVBL
HALEAKALA*     NOT AVBL
KAUPO GAP*     NOT AVBL
KULA 1*          N/A     48  43  81 E6          N/A
$$

HIZ023>026-061100-
BIG ISLAND OF HAWAII COAST AND LOWER SLOPES-

CITY           SKY/WX    TMP DP  RH WIND       PRES   REMARKS
KAILUA KONA    CLOUDY    77  65  66 CALM      30.01R
HILO           MOCLDY    66  61  84 SW7       30.03S
HONOKAA*         N/A     64 N/A N/A VRB1        N/A
KAWAIHAE MWT*    N/A     75 N/A N/A SE6         N/A
KAWAIHAE*      NOT AVBL
SOUTH POINT*     N/A     66 N/A N/A N12         N/A
UPOLU AIRPORT*   N/A    N/A N/A N/A S3          N/A
KAMUELA*       SUNNY     52  50  93 E5        30.13S
HAKALAU*         N/A    N/A N/A N/A W6          N/A
KALOKO-HONOKO* NOT AVBL
PALI 2*          N/A     57  55  94 N6          N/A
KEALAKOMO*       N/A     70  66  88 N5          N/A
KAUPULEHU*     NOT AVBL
KAPAPALA*        N/A     58  56  93 NW5         N/A
LOWER KAHUKU*  NOT AVBL
PUHE CS*       NOT AVBL
PUHO CS*       NOT AVBL
PTA KEAMUKU*     N/A     55  50  82 CALM        N/A
WAIKOLOA*      NOT AVBL
$$

HIZ027>028-061100-
BIG ISLAND OF HAWAII INTERIOR AND SUMMMITS-

CITY           SKY/WX    TMP DP  RH WIND       PRES   REMARKS
BRADSHAW FIELD CLOUDY    42  35  76 SE6       30.33S
MK VISITOR CEN   N/A     46 -24   4 NE7         N/A
MAUNA KEA*       N/A     39 -29   4 NW18        N/A  WCI  30
MAUNA LOA*     NOT AVBL
MAUNA LOA 1*   NOT AVBL
PTA KIPUKA*      N/A     66  64  94 E5          N/A
PTA RANGE 17*    N/A     64  57  77 E6          N/A
PTA WEST*        N/A     52  45  76 SE12        N/A
NENE CABIN*    NOT AVBL
AHUMOA*        NOT AVBL
PTA PORTABLE*  NOT AVBL
PUU MALI*        N/A     50  34  53 S5G12       N/A
$$

HIC003-061100-
NORTHWEST ISLANDS-

CITY           SKY/WX    TMP DP  RH WIND       PRES   REMARKS
MIDWAY ISLAND  PTCLDY    59  43  55 N12G22    30.32R
MIDWAY NOS*    NOT AVBL
FRENCH FRIGATE NOT AVBL
$$

PHZ110>124-180-061100-
BUOY REPORTS

STATION/POSITION TIME  TEMP    WIND        PRES    WAVE   SWELL
                       AIR SEA DIR/SP/G            HT/PER HT/DIR
                 (UTC) (F)     (DEG/KT/KT) (MB)    (FT/S) (FT/D)
BUOY 51001       0900   75 76  270/ 14/ 17 1015.8R
BUOY 51101       0950   75 76  280/ 14/ 17 1015.7F   6/11   5/340
BUOY 51100       NOT AVBL
BUOY 51002       0950   77 78   90/ 14/ 16 1015.3R   7/10   5/ 80
BUOY 51003       0950   77 78   40/ 14/ 16 1016.3F   5/11   5/330
BUOY 51004       0950   76 77   90/ 17/ 21 1015.1F   8/10   5/ 80
BARBERS PT BUOY  NOT AVBL
WAIMEA BAY BUOY  0904      79                N/A     5/11   3/330
KAILUA BAY BUOY  0911      77                N/A     4/10   2
LANAI BUOY       NOT AVBL
BARBERS PT 2     0903      78                N/A     4/11   2/290
PAUWELA MAUI     0907      76                N/A     6/11   3/350
HILO             NOT AVBL
KANEOHE BAY BUOY 0906      77                N/A     4/10   2/360
HANALEI KAUAI    1001      77                N/A     6/11   3/300
KAHULUI HARBOR   0900   73 78  160/  1/  2 1015.8S
HONOLULU HARBOR  0900   76 78   40/  2/  4 1016.9S
KILO NALU        NOT AVBL
HILO HARBOR      0900   69 77  200/  5/  6 1016.6R
MOKUOLOE         0900   72 79  280/  2/  3 1016.5S
NAWILIWILI       0900   69 79  270/  5/  5 1016.6F
WHOTS BUOY       NOT AVBL
BUOY 51028       NOT AVBL
$$

......................KEY........................................
  SKY/WX - SKY CONDITIONS/PRESENT WEATHER
  TMP    - TEMPERATURE IN FAHRENHEIT
  DWPT   - DEWPOINT IN FAHRENHEIT
  RH     - RELATIVE HUMIDITY IN PERCENT
  WIND   - DIRECTION AND SPEED /MPH FOR ISLANDS...KTS FOR BUOYS/
  PRES   - MEAN SEA LEVEL PRESSURE IN INCHES OF HG
  VSB    - VISIBILITY IN MILES
  HX     - HEAT INDEX
  WCI    - WIND CHILL INDEX
  VRB    - VARIABLE WIND DIRECTION
  N/A    - NOT AVAILABLE




USA.gov is the U.S. government's official web portal to all federal, state and local government web resources and services.